STARLINK-2699 (48433 NORAD) Tracking and Keplerian Element Data

This shows tracking and keplerian element data for the satellite.

Feedback or suggestion? Click here.




ElementValue
Catalog48433
NameSTARLINK-2699
Epoch Orbit369
Epoch Day214.91667824
Epoch Year2021
RAAN157.3396
Inclination53.0474
Eccentricity0.0002151
Argument of Perigee32.2371
Mean Anonmoly73.0501
Mean Motion15.73230246
Decay Rate4.669E-05
L11 48433U 21040F 21214.91667824 .00004669 00000-0 37626-4 0 9995
L22 48433 53.0474 157.3396 0002151 32.2371 73.0501 15.73230246 3695

Live tracking and technical data element details for STARLINK-2699 (NORAD 48433). STARLINK-2699 can be tracked NOW for your location showing map with azimuth and elevation plus other details from your city location.

Track the satellite on the map from your city or location and see movement details for azimuth, elevation, latitude, longitude, range, height, and movement on the map or in text.







IsCatalogInMostPopularTable: catalog: 48433, numindb: 28
Update: records affected: 1



GetName: 48433 STARLINK-2699

Hit Count: updated at: Tue, 03 Aug 2021 19:33:18 GMT